[[{"header":{"parameterUnit":"m.s-1","parameterCategory":1,"la1":30.2991,"la2":30.254,"lo1":-89.0895,"lo2":-89.0444,"dy":0.0017,"dx":0.0017,"nx":28,"ny":28,"refTime":"2023-05-28T21:00:00:Z","depth":0,"parameterNumber":2,"parameterNumberName":"U-component_of_WINDS"},"data":[0,0,0,0,0,0,0,0,0,0,0,0,0,0,0,0,0,0,0,0,0,0,0,0,0,0,0,0,0,0,0,0,0,0,0,0,0,0,0,0,0,0,0,0,0,0,0,0,0,0,0,0,0,0,0,0,0,0,-1.2824,-1.2823,0,-1.2771,-1.277,-1.277,-1.2712,-1.2711,-1.2711,-1.271,-1.2655,-1.2654,-1.2653,0,0,0,0,0,0,0,0,0,0,0,0,0,-1.2875,-1.2875,-1.2824,-1.2823,-1.2823,-1.2771,-1.277,-1.277,-1.2712,-1.2711,-1.271,-1.2709,-1.2655,-1.2654,-1.2653,0,0,0,0,0,0,0,0,0,0,0,0,0,-1.2841,-1.2875,-1.2824,-1.2788,-1.2784,-1.2771,-1.277,-1.277,-1.2713,-1.2711,-1.271,-1.2709,-1.2655,-1.2654,-1.2653,-1.2672,0,0,-1.265,-1.265,0,0,0,0,0,0,0,0,-1.2843,-1.2839,-1.2794,-1.279,-1.2786,-1.2747,-1.2768,-1.2737,-1.2713,-1.274,-1.271,-1.2708,-1.2686,-1.2683,-1.2675,-1.2669,-1.2667,-1.265,-1.2649,-1.2649,-1.2649,0,0,0,0,0,0,0,-1.2845,-1.2841,-1.2803,-1.2793,-1.2789,-1.2774,-1.2768,-1.2762,-1.2721,-1.2737,-1.2733,-1.2728,-1.2684,-1.2677,-1.2674,-1.2666,-1.265,-1.2649,-1.2648,-1.2648,-1.2671,-1.2673,0,0,0,0,0,0,-1.2853,-1.2843,-1.2805,-1.2801,-1.2812,-1.2774,-1.2767,-1.2761,-1.2721,-1.2713,-1.2729,-1.2725,-1.2679,-1.2675,-1.2672,-1.269,-1.2649,-1.2648,-1.2647,-1.267,-1.2672,-1.2673,0,0,0,0,0,0,-1.2855,-1.285,-1.2807,-1.2821,-1.2815,-1.2775,-1.2768,-1.276,-1.2753,-1.2714,-1.2706,-1.2729,-1.2678,-1.2673,-1.2672,-1.2687,-1.2647,-1.2646,-1.2669,-1.2671,-1.2672,-1.2726,0,0,0,0,0,0,-1.2856,-1.2851,-1.2858,-1.2822,-1.2814,-1.2808,-1.2769,-1.276,-1.2751,-1.2746,-1.2712,-1.2705,-1.2677,-1.2674,-1.2671,-1.2685,-1.2646,-1.2667,-1.2669,-1.2672,-1.2723,-1.273,-1.2736,0,0,0,0,0,-1.2858,-1.2875,-1.2858,-1.2854,-1.2821,-1.2809,-1.2805,-1.2772,-1.2753,-1.2759,-1.2734,-1.2706,-1.2686,-1.2674,-1.267,-1.2684,-1.2666,-1.2669,-1.2672,-1.272,-1.2729,-1.2736,0,0,0,0,0,0,-1.2913,-1.287,-1.2851,-1.2856,-1.2837,-1.28,-1.2806,-1.2782,-1.2767,-1.2763,-1.2722,-1.2715,-1.2719,-1.2702,-1.2689,-1.27,-1.2672,-1.2674,-1.271,-1.2718,-1.2724,-1.2728,-1.2645,0,0,0,0,0,-1.2926,-1.292,-1.2882,-1.2891,-1.2882,-1.2846,-1.284,-1.2816,-1.2794,-1.2786,-1.2761,-1.2741,-1.273,-1.2723,-1.2711,-1.2721,-1.2712,-1.2729,-1.2735,-1.2741,-1.2742,-1.2746,-1.2752,-1.2682,-1.2682,-1.2682,0,0,-1.2953,-1.2928,-1.2926,-1.2901,-1.2884,-1.2878,-1.284,-1.2835,-1.283,-1.2785,-1.2782,-1.2763,-1.2738,-1.2743,-1.2743,-1.2728,-1.276,-1.2744,-1.2749,-1.2747,-1.2749,-1.2756,-1.2762,-1.2684,-1.2684,-1.2683,0,0,-1.2997,-1.2979,-1.2983,-1.2966,-1.294,-1.2916,-1.2918,-1.2884,-1.287,-1.2867,-1.2832,-1.2826,-1.2809,-1.2792,-1.2781,-1.2821,-1.2794,-1.2818,-1.2851,-1.2854,-1.286,-1.2865,-1.2878,-1.2883,-1.2821,-1.2821,-1.2821,0,-1.3033,-1.3023,-1.2989,-1.2986,-1.2976,-1.2935,-1.294,-1.2925,-1.2896,-1.289,-1.2874,-1.2851,-1.2832,-1.2831,-1.2841,-1.2834,-1.2834,-1.2821,-1.2862,-1.2866,-1.287,-1.2882,-1.2887,-1.2824,-1.2823,-1.2823,-1.2823,0,-1.3068,-1.3062,-1.3069,-1.3042,-1.3033,-1.3034,-1.3,-1.2995,-1.2972,-1.295,-1.2947,-1.2923,-1.2905,-1.2903,-1.2881,-1.29,-1.2891,-1.287,-1.284,-1.288,-1.2891,-1.2895,-1.2828,-1.2827,-1.2826,-1.2825,0,0,-1.3144,-1.3099,-1.3102,-1.3089,-1.3058,-1.3052,-1.3052,-1.3034,-1.303,-1.3013,-1.3011,-1.2997,-1.2977,-1.2965,-1.2941,-1.2945,-1.2977,-1.2922,-1.2921,-1.2932,-1.2995,-1.301,-1.3016,-1.296,-1.2961,-1.2961,-1.2996,0,-1.3182,-1.3178,-1.3147,-1.3152,-1.3146,-1.3108,-1.3107,-1.3088,-1.3068,-1.3059,-1.3037,-1.3027,-1.3002,-1.2994,-1.2997,-1.2972,-1.2988,-1.297,-1.2957,-1.2957,-1.2963,-1.3022,-1.3038,-1.3072,-1.3,-1.3001,-1.3002,0,-1.3225,-1.321,-1.3214,-1.3182,-1.3179,-1.3179,-1.316,-1.3153,-1.3131,-1.3116,-1.3103,-1.3076,-1.3073,-1.3048,-1.3043,-1.3031,-1.3025,-1.3012,-1.3013,-1.3009,-1.298,-1.3018,-1.3083,-1.3087,-1.3008,-1.3008,-1.3007,0,-1.3278,-1.3259,-1.3259,-1.3249,-1.3213,-1.3214,-1.3199,-1.3175,-1.3167,-1.3151,-1.3145,-1.313,-1.3121,-1.311,-1.3079,-1.3064,-1.3078,-1.305,-1.3065,-1.3066,-1.3068,-1.3068,-1.3131,-1.3067,-1.3067,-1.3066,-1.3066,0,-1.3323,-1.3327,-1.3282,-1.3282,-1.3285,-1.3251,-1.3255,-1.3236,-1.3216,-1.3211,-1.3178,-1.3175,-1.3136,-1.3128,-1.3105,-1.3104,-1.31,-1.3088,-1.3081,-1.309,-1.3091,-1.3084,-1.308,-1.3068,-1.3067,-1.3067,-1.3067,0,-1.3382,-1.3353,-1.335,-1.3316,-1.3308,-1.3312,-1.3283,-1.3281,-1.3259,-1.3254,-1.3251,-1.3217,-1.3206,-1.3175,-1.3156,-1.3141,-1.3146,-1.3135,-1.3154,-1.3149,-1.3165,-1.3164,-1.3224,-1.323,-1.3164,-1.3164,-1.3165,0,-1.3412,-1.3414,-1.3381,-1.3375,-1.3361,-1.3353,-1.3345,-1.3311,-1.3303,-1.3278,-1.328,-1.3267,-1.3254,-1.3238,-1.3211,-1.3197,-1.3184,-1.3206,-1.3182,-1.319,-1.3183,-1.3183,-1.3182,-1.3211,-1.3212,-1.3213,-1.3214,0,-1.3467,-1.3453,-1.3441,-1.3425,-1.3416,-1.3402,-1.3385,-1.3383,-1.3345,-1.3339,-1.3327,-1.3317,-1.3298,-1.3285,-1.3267,-1.3251,-1.3226,-1.3222,-1.3224,-1.3232,-1.3243,-1.3236,-1.3167,-1.322,-1.3219,-1.3219,-1.3219,-1.3218,-1.3512,-1.3511,-1.3488,-1.3476,-1.3461,-1.3447,-1.3443,-1.3421,-1.3411,-1.3393,-1.3374,-1.3365,-1.3343,-1.3315,-1.3302,-1.3294,-1.328,-1.3284,-1.3285,-1.3286,-1.329,-1.3245,-1.329,-1.329,-1.329,-1.329,-1.329,0,-1.3564,-1.3547,-1.3537,-1.3515,-1.3507,-1.3485,-1.3466,-1.346,-1.3452,-1.3433,-1.3422,-1.3409,-1.3396,-1.3369,-1.3354,-1.3353,-1.3341,-1.335,-1.3349,-1.3345,-1.3303,-1.3302,-1.3359,-1.3359,-1.3359,-1.3359,-1.3359,-1.3359,-1.359,-1.3589,-1.3571,-1.3562,-1.3545,-1.3535,-1.3526,-1.3513,-1.3498,-1.3485,-1.3474,-1.3457,-1.3435,-1.3418,-1.3405,-1.3398,-1.3393,-1.3406,-1.3394,-1.3355,-1.3348,-1.3342,-1.334,-1.3405,-1.3406,-1.3437,-1.3437,-1.3438]},{"header":{"parameterUnit":"m.s-1","parameterCategory":1,"la1":30.2991,"la2":30.254,"lo1":-89.0895,"lo2":-89.0444,"dy":0.0017,"dx":0.0017,"nx":28,"ny":28,"refTime":"2023-05-28T21:00:00:Z","depth":0,"parameterNumber":3,"parameterNumberName":"V-component_of_WINDS"},"data":[0,0,0,0,0,0,0,0,0,0,0,0,0,0,0,0,0,0,0,0,0,0,0,0,0,0,0,0,0,0,0,0,0,0,0,0,0,0,0,0,0,0,0,0,0,0,0,0,0,0,0,0,0,0,0,0,0,0,3.7026,3.7027,0,3.7109,3.711,3.7111,3.7175,3.7175,3.7176,3.7176,3.7256,3.7258,3.7259,0,0,0,0,0,0,0,0,0,0,0,0,0,3.6919,3.692,3.7026,3.7027,3.7028,3.7109,3.711,3.7111,3.7175,3.7175,3.7176,3.7177,3.7256,3.7257,3.7259,0,0,0,0,0,0,0,0,0,0,0,0,0,3.698,3.6921,3.7026,3.707,3.7075,3.7109,3.711,3.7112,3.7174,3.7175,3.7176,3.7177,3.7255,3.7257,3.726,3.7256,0,0,3.7267,3.7268,0,0,0,0,0,0,0,0,3.6976,3.6983,3.7062,3.7067,3.7072,3.7133,3.7102,3.716,3.7174,3.7136,3.7176,3.7177,3.7214,3.722,3.7233,3.7259,3.7263,3.7267,3.7268,3.7269,3.727,0,0,0,0,0,0,0,3.6972,3.698,3.7059,3.7063,3.7069,3.7084,3.7094,3.7113,3.7169,3.714,3.7145,3.7154,3.7217,3.7231,3.7235,3.7264,3.7267,3.7269,3.727,3.7271,3.7291,3.729,0,0,0,0,0,0,3.6961,3.6976,3.7056,3.7062,3.7026,3.7085,3.7096,3.7112,3.7169,3.7178,3.7153,3.7156,3.7226,3.7233,3.7238,3.7238,3.7269,3.7271,3.7273,3.7292,3.7291,3.729,0,0,0,0,0,0,3.6959,3.6968,3.7053,3.702,3.7032,3.7086,3.7104,3.7113,3.7127,3.7179,3.7189,3.7157,3.7227,3.7235,3.7251,3.7241,3.7272,3.7275,3.7293,3.7292,3.729,3.7236,0,0,0,0,0,0,3.6956,3.6967,3.6967,3.702,3.7034,3.7066,3.7103,3.7114,3.7132,3.7137,3.7185,3.7194,3.7229,3.7247,3.7254,3.7245,3.7276,3.7294,3.7292,3.7291,3.7239,3.7233,3.7228,0,0,0,0,0,3.6951,3.6947,3.6966,3.6976,3.7035,3.7065,3.7073,3.7114,3.7131,3.7131,3.7164,3.7193,3.7242,3.7249,3.7256,3.7248,3.7295,3.7293,3.7291,3.7241,3.7234,3.7228,0,0,0,0,0,0,3.6889,3.6955,3.6977,3.699,3.7022,3.7076,3.7077,3.7105,3.7131,3.7135,3.7183,3.7193,3.7204,3.7228,3.7234,3.7247,3.7272,3.7271,3.7232,3.7225,3.722,3.7214,3.7278,0,0,0,0,0,3.6878,3.6898,3.6953,3.6959,3.6974,3.7022,3.7037,3.7066,3.71,3.7113,3.7148,3.7178,3.7201,3.7214,3.7238,3.7243,3.7254,3.7241,3.7235,3.7231,3.7229,3.7234,3.7229,3.7284,3.7284,3.7284,0,0,3.6853,3.6891,3.69,3.6948,3.6976,3.6994,3.7033,3.7051,3.7065,3.7116,3.7134,3.7159,3.7197,3.7207,3.7214,3.7227,3.7217,3.7228,3.7224,3.7226,3.7231,3.7226,3.7221,3.7282,3.7282,3.7283,0,0,3.6817,3.6848,3.6857,3.6884,3.6927,3.6959,3.6961,3.7011,3.7031,3.705,3.7089,3.7105,3.7142,3.7168,3.7185,3.7159,3.7187,3.7165,3.7137,3.714,3.7136,3.7133,3.7123,3.7119,3.7164,3.7164,3.7164,0,3.678,3.6811,3.6857,3.6873,3.6893,3.6941,3.6949,3.6973,3.702,3.7032,3.7047,3.7096,3.7124,3.7141,3.7135,3.7148,3.7151,3.716,3.7133,3.713,3.7127,3.7119,3.7115,3.7161,3.7161,3.7162,3.7162,0,3.6764,3.6785,3.6786,3.6833,3.6852,3.6864,3.691,3.6924,3.6952,3.6982,3.7,3.7036,3.7068,3.7074,3.71,3.7095,3.7102,3.7125,3.715,3.7119,3.7112,3.7109,3.7157,3.7158,3.7159,3.716,0,0,3.6691,3.6763,3.6763,3.6785,3.6836,3.6852,3.6865,3.6898,3.6909,3.694,3.6952,3.6983,3.7004,3.7024,3.7053,3.7057,3.7034,3.7079,3.708,3.7069,3.703,3.7013,3.7009,3.7053,3.7052,3.7052,3.7027,0,3.6663,3.6693,3.6734,3.6749,3.6769,3.6815,3.6827,3.6858,3.6887,3.6907,3.6938,3.6959,3.6985,3.6998,3.7003,3.7036,3.7027,3.7038,3.7063,3.7064,3.7053,3.7005,3.6987,3.6963,3.7025,3.7024,3.7024,0,3.6635,3.6665,3.6682,3.6732,3.6742,3.6752,3.6785,3.6804,3.684,3.6861,3.6883,3.6915,3.6931,3.6954,3.6976,3.6983,3.6996,3.7013,3.7013,3.7017,3.7042,3.7008,3.6956,3.6952,3.702,3.702,3.7021,0,3.658,3.6625,3.6641,3.6658,3.6716,3.6722,3.6746,3.6784,3.6801,3.683,3.6841,3.687,3.6886,3.6908,3.6946,3.696,3.6964,3.699,3.698,3.6979,3.6979,3.6979,3.6928,3.6987,3.6987,3.6987,3.6987,0,3.6545,3.6554,3.6618,3.6628,3.6638,3.6686,3.6694,3.6723,3.6756,3.6771,3.6812,3.6825,3.6876,3.6894,3.6924,3.6938,3.6944,3.6961,3.6969,3.6957,3.6955,3.6966,3.6969,3.6986,3.6986,3.6987,3.6987,0,3.6486,3.6529,3.655,3.6604,3.6617,3.6623,3.6668,3.6679,3.671,3.6729,3.6736,3.6784,3.6809,3.685,3.6885,3.6905,3.6913,3.6926,3.6901,3.6906,3.6894,3.6894,3.6849,3.6845,3.6906,3.6905,3.6905,0,3.6461,3.6469,3.6524,3.6538,3.6561,3.6583,3.6601,3.6647,3.6664,3.6706,3.6712,3.6739,3.6764,3.68,3.6838,3.6865,3.6879,3.6861,3.6884,3.6872,3.6879,3.6878,3.6879,3.6856,3.6855,3.6855,3.6854,0,3.6411,3.6432,3.6458,3.6491,3.6512,3.6539,3.6569,3.6577,3.663,3.6647,3.6673,3.6692,3.6729,3.6756,3.6789,3.6812,3.6841,3.6847,3.6846,3.6834,3.682,3.6828,3.6887,3.6848,3.6848,3.6849,3.6849,3.6849,3.6369,3.6378,3.6419,3.6445,3.6473,3.65,3.6513,3.6546,3.6569,3.6604,3.663,3.6654,3.669,3.6737,3.6759,3.6777,3.6791,3.6789,3.6789,3.6788,3.6784,3.6817,3.6783,3.6784,3.6784,3.6784,3.6784,0,3.6322,3.635,3.6375,3.6415,3.6436,3.6464,3.6498,3.6513,3.6535,3.6566,3.659,3.662,3.6646,3.6686,3.6715,3.6722,3.6736,3.6728,3.6728,3.6733,3.677,3.6768,3.6716,3.6716,3.6716,3.6716,3.6716,3.6716,3.63,3.6317,3.6343,3.6374,3.6403,3.6428,3.6445,3.647,3.6495,3.6527,3.655,3.6576,3.6611,3.6643,3.6668,3.6679,3.6688,3.6675,3.669,3.6724,3.673,3.6736,3.6735,3.6677,3.6677,3.6652,3.6651,3.6651]}]]